This demonstration page uses our WeatherBlox Daily Observations layout. Learn more.

Left ArrowRight Arrow

34.02893, -84.19858

Hourly Observations for August 21, 2015

Temp ( °F °C ) Dew Point ( °F °C ) Humidity (%) Winds ( mph kmh ) Pressure ( in mb ) Visibility ( mi km ) Precip ( " mm )
12:53 am 00:53 Clear 75 23.9 74 23.3 96 96 Calm 29.98 1015 10 16 0.00 0.00
1:53 am 01:53 Clear 74 23.3 74 23.3 100 100 Calm 29.97 1015 7 11 0.00 0.00
2:53 am 02:53 Clear with Mist and Fog 74 23.3 74 23.3 100 100 Calm 29.96 1015 6 10 0.00 0.00
3:53 am 03:53 Clear with Mist and Fog 74 23.3 74 23.3 100 100 Calm 29.97 1015 6 10 0.00 0.00
4:53 am 04:53 Clear 73 22.8 73 22.8 100 100 Calm 29.98 1015 7 11 0.00 0.00
5:53 am 05:53 Clear with Mist and Fog 73 22.8 73 22.8 100 100 Calm 29.98 1015 6 10 0.00 0.00
6:31 am 06:31 Mostly Cloudy 74 23.3 73 22.8 97 97 WNW 3 6 30.00 1016 8 13 0.00 0.00
6:45 am 06:45 Partly Cloudy 74 23.3 73 22.8 97 97 NW 5 7 30.03 1017 8 13 0.00 0.00
6:53 am 06:53 Mostly Clear 74 23.3 73 22.8 97 97 NNW 5 7 29.99 1016 9 14 0.00 0.00
7:53 am 07:53 Sunny 74 23.3 72 22.2 94 94 Calm 30.01 1016 10 16 0.00 0.00
8:53 am 08:53 Sunny 76 24.4 72 22.2 88 88 Calm 30.03 1017 10 16 0.00 0.00
9:53 am 09:53 Sunny 79 26.1 71 21.7 77 77 Calm 30.04 1017 10 16 0.00 0.00
10:53 am 10:53 Mostly Cloudy 82 27.8 71 21.7 69 69 NW 3 6 30.05 1018 10 16 0.00 0.00
11:53 am 11:53 Cloudy 83 28.3 71 21.7 67 67 WNW 5 7 30.05 1018 10 16 0.00 0.00
12:53 pm 12:53 Mostly Cloudy 85 29.4 71 21.7 63 63 WNW 8 13 30.04 1017 10 16 0.00 0.00
1:53 pm 13:53 Mostly Cloudy 86 30 71 21.7 61 61 VRB 7 11 30.03 1017 10 16 0.00 0.00
2:53 pm 14:53 Sunny 86 30 71 21.7 61 61 VRB 3 6 30.02 1017 10 16 0.00 0.00
3:53 pm 15:53 Mostly Sunny 86 30 71 21.7 61 61 WNW 5 7 30.00 1016 10 16 0.00 0.00
4:53 pm 16:53 Mostly Sunny 88 31.1 70 21.1 55 55 NW 9 15 29.99 1016 10 16 0.00 0.00
5:53 pm 17:53 Sunny 88 31.1 71 21.7 57 57 VRB 3 6 29.98 1015 10 16 0.00 0.00
6:53 pm 18:53 Sunny 84 28.9 70 21.1 63 63 N 8 13 29.99 1016 10 16 0.00 0.00
7:53 pm 19:53 Sunny 82 27.8 72 22.2 72 72 N 5 7 29.99 1016 10 16 0.00 0.00
8:53 pm 20:53 Clear 80 26.7 70 21.1 71 71 NNW 5 7 30.00 1016 10 16 0.00 0.00
9:53 pm 21:53 Clear 79 26.1 71 21.7 77 77 NNW 5 7 30.03 1017 10 16 0.00 0.00
10:53 pm 22:53 Clear 78 25.6 71 21.7 79 79 NNW 5 7 30.04 1017 10 16 0.00 0.00
11:53 pm 23:53 Clear 76 24.4 69 20.6 79 79 NNW 6 9 30.03 1017 10 16 0.00 0.00

Powered by AerisWeather